Weather History for KOPF - October, 2011

Change the Weather History Date:

Thursday, October 13, 2011

  Actual Average (KMIA) Record (KMIA)
Temperature  
Mean Temperature 82 °F 80 °F  
Max Temperature 90 °F 87 °F 93 °F (1990)
Min Temperature 75 °F 74 °F 62 °F (1977)
Degree Days  
Heating Degree Days 0 0  
Month to date heating degree days 0  
Since 1 July heating degree days 0  
Cooling Degree Days 17 15  
Month to date cooling degree days 212  
Year to date cooling degree days 3824  
Growing Degree Days 32 (Base 50)    
Moisture  
Dew Point 72 °F    
Average Humidity 75    
Maximum Humidity 94    
Minimum Humidity 52    
Precipitation  
Precipitation 0.00 in 0.23 in 2.61 in (1965)
Month to date precipitation 3.39  
Year to date precipitation 53.65  
Snow  
Snow 0.00 in - - ()
Month to date snowfall  
Since 1 July snowfall  
Since 1 September snowfall  
Snow Depth -    
Sea Level Pressure  
Sea Level Pressure 29.81 in    
Wind  
Wind Speed 2 mph (SSW)    
Max Wind Speed 10 mph    
Max Gust Speed 22 mph    
Visibility 10 miles    
Events      
T = Trace of Precipitation, MM = Missing Value Source: NWS Daily Summary

Daily Weather History Graph

Daily Weather History Graph

Search for Another Location

Airport or City:

Trip Planner

Search our weather history database for the weather conditions in past years. The results will help you decide how hot, cold, wet, or windy it might be!

Date:

Astronomy

Oct. 13, 2011 Rise Set
Actual Time 7:18 AM EDT 6:55 PM EDT
Civil Twilight 6:55 AM EDT 7:18 PM EDT
Nautical Twilight 6:28 AM EDT 7:45 PM EDT
Astronomical Twilight 6:02 AM EDT 8:12 PM EDT
Moon 7:46 PM EDT (10/13) 8:34 AM EDT (10/13)
Length of Visible Light 12h 23m
Length of Day
11h 36m
Full, 98% of the Moon is Illuminated
Oct 13
Full
Oct 19
Last Quarter
Oct 26
New
Nov 2
First Quarter
Nov 10
Full

Hourly Weather History & Observations

Time (EDT) Temp. Heat Index Dew Point Humidity Pressure Visibility Wind Dir Wind Speed Gust Speed Precip Events Conditions
12:53 AM 77.0 °F - 72.0 °F 84% 29.86 in 10.0 mi Calm Calm - N/A   Clear
1:53 AM 78.1 °F - 73.0 °F 84% 29.84 in 10.0 mi Calm Calm - N/A   Clear
2:53 AM 77.0 °F - 73.0 °F 88% 29.83 in 10.0 mi Calm Calm - N/A   Clear
3:53 AM 77.0 °F - 73.0 °F 88% 29.81 in 10.0 mi Calm Calm - N/A   Clear
4:53 AM 75.9 °F - 73.0 °F 91% 29.81 in 10.0 mi Calm Calm - N/A   Clear
5:53 AM 75.9 °F - 73.9 °F 94% 29.82 in 10.0 mi Calm Calm - N/A   Clear
6:53 AM 77.0 °F - 73.9 °F 90% 29.83 in 10.0 mi Calm Calm - N/A   Clear
7:53 AM 75.9 °F - 73.9 °F 94% 29.83 in 10.0 mi Calm Calm - N/A   Clear
8:53 AM 80.1 °F 85.4 °F 75.9 °F 87% 29.84 in 10.0 mi Calm Calm - N/A   Clear
9:53 AM 82.9 °F 88.8 °F 73.0 °F 72% 29.85 in 10.0 mi West 3.5 mph - N/A   Clear
10:53 AM 84.9 °F 90.1 °F 71.1 °F 63% 29.85 in 10.0 mi WSW 5.8 mph - N/A   Partly Cloudy
11:53 AM 87.8 °F 92.6 °F 69.8 °F 55% 29.84 in 10.0 mi SSW 5.8 mph - N/A   Clear
12:53 PM 88.0 °F 92.1 °F 69.1 °F 53% 29.83 in 10.0 mi Calm Calm - N/A   Clear
1:53 PM 88.0 °F 92.1 °F 69.1 °F 53% 29.80 in 10.0 mi WSW 3.5 mph - N/A   Partly Cloudy
2:53 PM 89.1 °F 93.7 °F 69.1 °F 52% 29.78 in 10.0 mi West 8.1 mph - N/A   Clear
3:53 PM 86.0 °F 93.0 °F 73.0 °F 65% 29.76 in 10.0 mi South 5.8 mph 21.9 mph N/A   Overcast
4:53 PM 86.0 °F 93.0 °F 73.0 °F 65% 29.74 in 10.0 mi South 8.1 mph - N/A   Clear
5:53 PM 84.9 °F 88.8 °F 69.1 °F 59% 29.74 in 10.0 mi South 8.1 mph - N/A   Clear
6:53 PM 82.0 °F 85.9 °F 70.0 °F 67% 29.77 in 10.0 mi South 10.4 mph - N/A   Partly Cloudy
7:53 PM 79.0 °F - 70.0 °F 74% 29.79 in 10.0 mi South 10.4 mph - N/A   Clear
8:53 PM 80.1 °F 83.6 °F 71.1 °F 74% 29.81 in 10.0 mi SSW 9.2 mph - N/A   Clear
9:53 PM 80.1 °F 83.8 °F 72.0 °F 76% 29.83 in 10.0 mi SSW 6.9 mph - N/A   Scattered Clouds
10:53 PM 79.0 °F - 73.0 °F 82% 29.84 in 10.0 mi Calm Calm - N/A   Scattered Clouds
11:53 PM 79.0 °F - 73.0 °F 82% 29.84 in 10.0 mi Calm Calm - N/A   Clear